Погода в Рудном

Россия / Оренбургская область     52°21′45″N   56°21′09″E
темп.,
°C
ветер,
м/с
пор.,
м/с
влажн.,
%
обл.,
%
осадки,
мм/ч
давл.,
гПа
погр.,
м
18 апреля, вс
вс1823:00+12всв33645 0.0 101833
02:00+10св22653 0.0 101710
05:00+9св22730 0.0 101713
08:00+9св24740 0.0 1016112
11:00+15ссв33530 0.0 1016479
14:00+18с45370 0.0 10151359
17:00+16с56375 0.0 1015971
20:00+12с464933 0.0 1016113
19 апреля, пн
пн1923:00+11всв71361100 0.0 1017392
02:00+6в10166581 0.0 1019661
05:00+3в1016615 0.0 1022628
08:00+2в10155994 0.0 1024738
11:00+1в101457100 0.1 1025731
14:00+5в91043100 0.0 10251179
17:00+7в9103887 0.0 10251425
20:00+4в81240100 0.0 1027707
20 апреля, вт
вт2023:00+1в8134293 0.0 1029679
02:00−1в712457 0.0 1030600
05:00−2в712450 0.0 1032681
08:00−1в812380 0.0 1033867
11:00+3вюв810280 0.0 10331181
14:00+6вюв68260 0.0 10321433
17:00+7вюв66260 0.0 10311483
20:00+4вюв35420 0.0 103182
21 апреля, ср
ср2123:00+1вюв33470 0.0 103242
02:000в22500 0.0 103311
05:000вюв22500 0.0 103311
08:00+2вюв25421 0.0 1034241
11:00+6юв453299 0.0 1033858
14:00+10юв562918 0.0 10321276
17:00+11ююв563095 0.0 10311390
20:00+7ююв474765 0.0 1032147
22 апреля, чт
чт2223:00+4юв3349100 0.0 103340
02:00+3вюв2252100 0.0 103412
05:00+2в2255100 0.0 103512
08:00+4вюв2654100 0.0 1035207
11:00+8ююв6943100 0.0 1035689
14:00+10ююв7841100 0.0 10341110
17:00+12ююв683896 0.0 10331514
20:00+9вюв4856100 0.0 1033172